Location: *
(46.4000°N, 12.6667°E)
Time: 05:21:06
(UTC+00:00)

X-37B - Pass Details

Date: 12 December 2021
Orbit: 331 x 339 km, 45.0° (Epoch: 27 January)

Event Time Altitude Azimuth Distance (km) Brightness Sun altitude
Rises 17:20:04 0° 266° (W) 2,101 5.9 -19.3°
Reaches altitude 10° 17:22:05 10° 264° (W) 1,264 4.4 -19.7°
Enters shadow 17:24:24 52° 237° (WSW) 420 1.0 -20.1°
